Location: Arcueil
(48.7999°N, 2.3326°E)
Time: 03:30:03
(UTC+00:00)

Cosmos 1943 Rocket - Visible Passes

Search period start: 25 July 2024 00:00
Search period end: 04 August 2024 00:00
Orbit: 812 x 843 km, 71.0° (Epoch: 24 July)

Date Brightness Start Highest point End Pass type
(mag) Time Alt. Az. Time Alt. Az. Time Alt. Az.
25 Jul 2.2 20:34:19 10° S 20:39:50 60° ESE 20:45:22 10° NE visible
25 Jul 4.1 22:19:05 10° WSW 22:23:57 29° NW 22:28:49 10° NNE visible
26 Jul 2.3 20:15:00 10° S 20:20:26 53° ESE 20:25:53 10° NE visible
26 Jul 4.0 21:59:26 10° WSW 22:04:26 32° NW 22:09:27 10° NNE visible
26 Jul 5.5 23:49:33 10° NNW 23:50:06 10° NNW 23:50:38 10° NNW visible
27 Jul 5.3 03:20:39 10° N 03:23:34 14° NNE 03:26:27 10° ENE visible
27 Jul 3.9 21:39:48 10° WSW 21:44:56 35° NW 21:50:03 10° NNE visible
27 Jul 5.4 23:29:04 10° NW 23:30:28 11° NNW 23:31:53 10° N visible
28 Jul 5.4 03:01:24 10° N 03:03:58 13° NNE 03:06:31 10° ENE visible
28 Jul 3.7 21:20:11 10° WSW 21:25:26 39° NW 21:30:40 10° NNE visible
28 Jul 5.4 23:08:57 10° NW 23:10:51 12° NNW 23:12:47 10° N visible
29 Jul 5.5 02:42:11 10° N 02:44:22 12° NNE 02:46:32 10° NE visible
29 Jul 3.5 21:00:36 10° SW 21:05:57 43° NW 21:11:16 10° NNE visible
29 Jul 5.3 22:48:55 10° NW 22:51:15 12° NNW 22:53:35 10° N visible
30 Jul 5.6 02:23:01 10° N 02:24:45 11° NNE 02:26:29 10° NE visible
30 Jul 3.4 20:41:01 10° SW 20:46:27 47° NW 20:51:52 10° NNE visible
30 Jul 5.3 22:28:57 10° WNW 22:31:39 13° NNW 22:34:20 10° N visible
31 Jul 5.7 02:04:00 10° NNE 02:05:08 11° NNE 02:06:16 10° NE visible
31 Jul 4.2 03:45:40 10° NNW 03:50:42 34° NE 03:55:42 10° ESE visible
31 Jul 3.2 20:21:29 10° SW 20:26:58 53° NW 20:32:27 10° NNE visible
31 Jul 5.3 22:09:03 10° WNW 22:12:03 14° NNW 22:15:04 10° N visible
01 Aug 4.3 03:26:17 10° NNW 03:31:11 31° NE 03:36:03 10° ESE visible
01 Aug 3.0 20:01:57 10° SW 20:07:30 59° WNW 20:13:03 10° NNE visible
01 Aug 5.3 21:49:10 10° WNW 21:52:28 16° NW 21:55:46 10° N visible
02 Aug 4.5 03:06:53 10° NNW 03:11:40 28° NE 03:16:23 10° ESE visible
02 Aug 5.3 21:29:19 10° WNW 21:32:53 17° NW 21:36:27 10° N visible
03 Aug 4.6 02:47:32 10° NNW 02:52:08 26° NE 02:56:42 10° E visible
03 Aug 5.2 21:09:30 10° W 21:13:19 18° NW 21:17:07 10° N visible
